Home > Weather > Fjerdingby > Past weeks

Flag for Norway Past Weather in Fjerdingby, Norway — Yesterday and Last 2 Weeks

Now
57 °F

Cool.


Feels Like: 57 °F
Forecast: 56 / 67 °F
Wind: 2 mph from Northeast

Location: Oslo-Blindern

Current Time: Jul 27, 2016 at 3:15:21 AM

Latest Report: Jul 27, 2016 at 2:00 AM


Visibility: N/A

Pressure: 29.93 "Hg

Humidity: 93%

Dew Point: 55 °F

Location of FjerdingbyLocation

Past Weather in Fjerdingby — Graph

°F

Fjerdingby Temperature Yesterday

Maximum temperature yesterday: 68 °F (at 3:00 PM)
Minimum temperature yesterday: 61 °F (at 2:00 AM)
Average temperature yesterday: 65 °F

High & Low Weather Summary for the Past Weeks

 TemperatureHumidityPressure
High82 °F (Jul 21, 3:00 PM)97% (Jul 13, 1:00 AM)30.13 "Hg (Jul 13, 1:00 AM)
Low49 °F (Jul 17, 5:00 AM)37% (Jul 22, 7:00 PM)29.44 "Hg (Jul 12, 2:00 AM)
Average65 °F72%29.91 "Hg
* Reported Jul 12 2:00 AM — Jul 27 2:00 AM, Fjerdingby, Weather by CustomWeather, © 2016

Note: Actual official high and low records may vary slightly from our data, if they occured in-between our weather recording intervals... More about our weather records

Advertising

Fjerdingby Weather History for the Previous 24 Hours

Scroll right to see more
 ConditionsComfort  
Time TempWeatherWind HumidityBarometerVisibility
2:00 AM
Wed, Jul 27
57 °FCool.2 mph93%29.93 "HgN/A
1:00 AM59 °FCool.2 mph90%29.93 "HgN/A
12:00 AM62 °FCool.1 mph85%29.92 "HgN/A
11:00 PM
Tue, Jul 26
63 °FMild.2 mph82%29.92 "HgN/A
10:00 PM64 °FMild.2 mph77%29.91 "HgN/A
9:00 PM65 °FMild.2 mph73%29.90 "HgN/A
8:00 PM66 °FScattered clouds.3 mph70%29.89 "Hg43 mi
7:00 PM66 °FMild.6 mph71%29.88 "HgN/A
6:00 PM65 °FMild.6 mph66%29.88 "HgN/A
5:00 PM68 °FPartly sunny.7 mph68%29.88 "Hg43 mi
4:00 PM68 °FMild.6 mph61%29.88 "HgN/A
3:00 PM68 °FMild.7 mph58%29.87 "HgN/A
2:00 PM68 °FPartly sunny.8 mph67%29.87 "Hg40 mi
1:00 PM68 °FMild.6 mph66%29.88 "HgN/A
12:00 PM68 °FMild.7 mph68%29.88 "HgN/A
11:00 AM66 °FOvercast.6 mph77%29.88 "Hg37 mi
10:00 AM66 °FMild.6 mph75%29.88 "HgN/A
9:00 AM65 °FMild.3 mph87%29.88 "HgN/A
8:00 AM63 °FMild.3 mph95%29.88 "HgN/A
7:00 AM62 °FMild.3 mph95%29.88 "HgN/A
6:00 AM62 °FCool.2 mph94%29.88 "HgN/A
5:00 AM62 °FCool.2 mph95%29.89 "HgN/A
4:00 AM62 °FCool.2 mph94%29.90 "HgN/A
3:00 AM62 °FCool.1 mph94%29.92 "HgN/A
Weather by CustomWeather, © 2016

See weather overviewHow to use our weather pages